This demonstration page uses our WeatherBlox Daily Observations layout. Learn more.

39.51506, -84.39828

Hourly Observations for November 13, 2019

Temp ( °F °C ) Dew Point ( °F °C ) Humidity (%) Winds ( mph kmh ) Pressure ( in mb ) Visibility ( mi km ) Precip ( " mm )
12:15 am 00:15 Clear 11 -11.7 8 -13.1 89 89 Calm 30.53 1034 10 16.0934 0 0
12:35 am 00:35 Clear 11 -11.6 9 -12.9 90 90 Calm 30.53 1034 10 16.0934 0 0
12:55 am 00:55 Clear 11 -11.6 9 -13 89 89 Calm 30.52 1033 10 16.0934 0 0
1:15 am 01:15 Clear 10 -12.1 8 -13.5 89 89 Calm 30.52 1034 10 16.0934 0 0
1:35 am 01:35 Clear 10 -12.1 8 -13.4 90 90 Calm 30.52 1034 10 16.0934 0 0
1:55 am 01:55 Clear with Mist and Fog 10 -12.4 7 -13.9 89 89 Calm 30.52 1034 7 11.26538 0 0
2:15 am 02:15 Clear with Mist and Fog 8 -13.3 5 -14.8 89 89 Calm 30.52 1034 5 8.0467 0 0
2:35 am 02:35 Clear 9 -12.6 7 -14.1 89 89 Calm 30.52 1034 7 11.26538 0 0
2:55 am 02:55 Clear 9 -13 6 -14.5 89 89 Calm 30.51 1033 10 16.0934 0 0
3:15 am 03:15 Clear 9 -13 6 -14.5 89 89 Calm 30.51 1033 10 16.0934 0 0
3:35 am 03:35 Clear 7 -13.7 4 -15.3 88 88 Calm 30.53 1034 10 16.0934 0 0
3:55 am 03:55 Clear 9 -12.9 6 -14.4 89 89 Calm 30.52 1034 10 16.0934 0 0
4:15 am 04:15 Clear 8 -13.2 6 -14.7 89 89 Calm 30.52 1034 10 16.0934 0 0
4:35 am 04:35 Clear 6 -14.3 3 -15.9 88 88 Calm 30.53 1034 7 11.26538 0 0
4:55 am 04:55 Clear 6 -14.2 4 -15.8 88 88 Calm 30.54 1034 10 16.0934 0 0
5:15 am 05:15 Clear 8 -13.1 6 -14.6 89 89 Calm 30.53 1034 10 16.0934 0 0
5:35 am 05:35 Clear 8 -13.6 5 -15.1 89 89 Calm 30.54 1034 10 16.0934 0 0
5:55 am 05:55 Clear 8 -13.5 5 -15 89 89 Calm 30.52 1034 10 16.0934 0 0
6:15 am 06:15 Clear 8 -13.6 5 -15.2 88 88 Calm 30.52 1033 10 16.0934 0 0
6:35 am 06:35 Clear 8 -13.6 5 -15.1 89 89 Calm 30.52 1033 10 16.0934 0 0
6:55 am 06:55 Clear 7 -13.8 4 -15.3 89 89 Calm 30.51 1033 10 16.0934 0 0
7:15 am 07:15 Clear 8 -13.3 5 -14.8 89 89 N 3 6 30.5 1033 10 16.0934 0 0
7:35 am 07:35 Sunny 8 -13.5 5 -15.1 88 88 Calm 30.5 1033 10 16.0934 0 0
7:55 am 07:55 Sunny 9 -13 6 -14.5 89 89 Calm 30.5 1033 7 11.26538 0 0
8:15 am 08:15 Sunny 9 -12.6 7 -14.1 89 89 Calm 30.5 1033 7 11.26538 0 0
8:35 am 08:35 Sunny 11 -11.5 9 -12.9 89 89 Calm 30.51 1033 10 16.0934 0 0
8:55 am 08:55 Sunny 12 -11 10 -12.3 90 90 Calm 30.5 1033 10 16.0934 0 0
9:15 am 09:15 Sunny 14 -10.1 11 -11.4 90 90 SE 7 11 30.5 1033 10 16.0934 0 0
9:35 am 09:35 Sunny 17 -8.5 15 -9.6 92 92 SE 7 11 30.49 1032 10 16.0934 0 0
9:55 am 09:55 Sunny 17 -8.3 15 -9.3 93 93 SE 9 15 30.48 1032 10 16.0934 0 0
10:15 am 10:15 Sunny 18 -7.6 17 -8.6 93 93 S 10 17 30.47 1032 10 16.0934 0 0
10:35 am 10:35 Sunny 19 -7.1 17 -8.2 92 92 ESE 7 11 30.47 1032 10 16.0934 0 0
10:55 am 10:55 Sunny 22 -5.4 13 -10.4 68 68 SSE 9 15 30.45 1031 10 16.0934 0 0
11:15 am 11:15 Sunny 23 -5 13 -10.3 67 67 SSE 10 17 30.43 1030 10 16.0934 0 0
11:35 am 11:35 Sunny 24 -4.6 14 -9.9 67 67 SSE 8 13 30.42 1030 10 16.0934 0 0
11:55 am 11:55 Sunny 25 -3.8 14 -10.1 62 62 SSE 12 19 30.42 1030 10 16.0934 0 0
12:15 pm 12:15 Sunny 25 -3.7 14 -9.9 63 63 S 6 9 30.41 1030 10 16.0934 0 0
12:35 pm 12:35 Sunny 26 -3.5 14 -9.8 62 62 SSW 9 15 30.4 1029 10 16.0934 0 0
12:55 pm 12:55 Sunny 26 -3.2 14 -9.8 61 61 SSW 9 15 30.4 1030 10 16.0934 0 0
1:15 pm 13:15 Sunny 26 -3.1 15 -9.4 62 62 S 7 11 30.4 1030 10 16.0934 0 0
1:35 pm 13:35 Sunny 26 -3.1 15 -9.3 63 63 SW 5 7 30.39 1029 10 16.0934 0 0
1:55 pm 13:55 Sunny 28 -2.5 15 -9.5 59 59 SW 5 7 30.38 1029 10 16.0934 0 0
2:15 pm 14:15 Sunny 28 -2.2 15 -9.7 57 57 SSW 5 7 30.37 1028 10 16.0934 0 0
2:35 pm 14:35 Sunny 29 -1.8 15 -9.4 57 57 SSW 6 9 30.36 1028 10 16.0934 0 0
2:55 pm 14:55 Sunny 29 -1.9 15 -9.7 56 56 SSW 7 11 30.35 1028 10 16.0934 0 0
3:15 pm 15:15 Sunny 29 -1.9 15 -9.4 57 57 S 6 9 30.35 1028 10 16.0934 0 0
3:35 pm 15:35 Sunny 29 -1.8 16 -9 58 58 SSW 7 11 30.33 1027 10 16.0934 0 0
3:55 pm 15:55 Sunny 29 -1.7 15 -9.2 57 57 SE 9 15 30.31 1026 10 16.0934 0 0
4:15 pm 16:15 Sunny 29 -1.8 15 -9.4 57 57 SE 9 15 30.3 1026 10 16.0934 0 0
4:35 pm 16:35 Sunny 29 -1.9 15 -9.3 57 57 ESE 8 13 30.3 1026 10 16.0934 0 0
4:55 pm 16:55 Sunny 28 -2 16 -9 59 59 E 8 13 30.29 1026 10 16.0934 0 0
5:15 pm 17:15 Sunny 28 -2.1 16 -8.9 60 60 SE 8 13 30.28 1025 10 16.0934 0 0
5:35 pm 17:35 Clear 28 -2.4 16 -8.8 62 62 SSE 8 13 30.28 1025 10 16.0934 0 0
5:55 pm 17:55 Clear 28 -2.5 16 -8.7 63 63 SSE 3 6 30.28 1025 10 16.0934 0 0
6:15 pm 18:15 Clear 28 -2.5 16 -9 61 61 SE 5 7 30.29 1026 10 16.0934 0 0
6:35 pm 18:35 Clear 28 -2.5 16 -9 61 61 S 8 13 30.29 1026 10 16.0934 0 0
6:55 pm 18:55 Clear 27 -2.6 16 -9.1 61 61 S 8 13 30.29 1026 10 16.0934 0 0
7:15 pm 19:15 Clear 27 -2.6 16 -8.8 63 63 S 8 13 30.28 1025 10 16.0934 0 0
7:35 pm 19:35 Clear 27 -2.6 16 -8.7 63 63 SSE 5 7 30.28 1025 10 16.0934 0 0
7:55 pm 19:55 Clear 27 -3 17 -8.6 66 66 S 3 6 30.28 1026 10 16.0934 0 0
8:15 pm 20:15 Clear 28 -2.5 17 -8.1 66 66 S 5 7 30.27 1025 10 16.0934 0 0
8:35 pm 20:35 Clear 28 -2.4 18 -7.9 66 66 S 5 7 30.27 1025 10 16.0934 0 0
8:55 pm 20:55 Clear 28 -2.4 18 -7.7 67 67 S 7 11 30.27 1025 10 16.0934 0 0
9:15 pm 21:15 Clear 28 -2.5 18 -7.8 67 67 S 8 13 30.25 1024 10 16.0934 0 0
9:35 pm 21:35 Clear 27 -2.6 18 -7.6 69 69 S 6 9 30.24 1024 10 16.0934 0 0
9:55 pm 21:55 Clear 27 -2.6 19 -7.4 70 70 S 5 7 30.24 1024 10 16.0934 0 0
10:15 pm 22:15 Clear 28 -2.5 19 -7 72 72 SSW 6 9 30.24 1024 10 16.0934 0 0
10:35 pm 22:35 Clear 26 -3.3 19 -7.1 75 75 SSW 5 7 30.24 1024 10 16.0934 0 0
10:55 pm 22:55 Clear 26 -3.1 19 -7 75 75 S 5 7 30.23 1024 10 16.0934 0 0
11:15 pm 23:15 Clear 27 -2.9 20 -6.8 75 75 SSW 6 9 30.23 1024 10 16.0934 0 0
11:35 pm 23:35 Clear 27 -2.6 20 -6.7 74 74 SSW 6 9 30.23 1024 10 16.0934 0 0
11:55 pm 23:55 Clear 27 -2.7 20 -6.6 75 75 S 6 9 30.22 1023 10 16.0934 0 0

Powered by AerisWeather